Search by property
This page provides a simple browsing interface for finding entities described by a property and a named value. Other available search interfaces include the page property search, and the ask query builder.
List of results
- Shambling mangrove + (14:12:34, 11 September 2025)
- Skill + (21:46:21, 11 September 2025)
- Evasion + (18:01:28, 12 September 2025)
- Monster speed + (18:13:05, 12 September 2025)
- Skill titles + (05:35:34, 1 October 2025)
- Extended game + (06:34:55, 13 October 2025)
- Lightning spire + (07:38:41, 13 October 2025)
- Blazeheart golem + (07:40:23, 13 October 2025)
- Artefact + (07:44:30, 13 October 2025)
- Gauntlet + (07:47:59, 13 October 2025)
- Autumn katana + (07:51:29, 13 October 2025)
- Cloak + (07:54:38, 13 October 2025)
- Damnation (unrand) + (07:55:52, 13 October 2025)
- Engulf + (07:58:02, 13 October 2025)
- Obsidian axe + (07:59:03, 13 October 2025)
- Elemental wellspring + (08:01:02, 13 October 2025)
- Water elemental + (08:01:41, 13 October 2025)
- Malmutate + (08:05:09, 13 October 2025)
- Monstrous Menagerie + (08:32:14, 13 October 2025)
- Poisonous Vapours + (08:32:50, 13 October 2025)
- Slow + (08:35:19, 13 October 2025)
- Category:Crystal Ball Articles + (08:39:25, 13 October 2025)
- Merfolk + (08:44:43, 13 October 2025)
- Vertigo + (08:56:46, 13 October 2025)
- Djinni + (08:59:18, 13 October 2025)
- Acid dragon + (17:45:24, 15 October 2025)
- Dagger + (18:42:30, 18 October 2025)
- Stun immunity + (20:07:08, 18 October 2025)
- Sleep + (20:18:40, 18 October 2025)
- Frozen + (20:42:28, 18 October 2025)
- Bat Form + (04:34:36, 19 October 2025)
- Launch Bomblet + (05:55:43, 19 October 2025)
- Amulet of faith + (06:09:20, 19 October 2025)
- Ring of the Hare + (06:13:26, 19 October 2025)
- Ring of the Tortoise + (06:13:59, 19 October 2025)
- Forge Monarch Bomb + (16:52:19, 19 October 2025)
- Cause Fear + (21:08:57, 19 October 2025)
- Might Other + (21:22:58, 19 October 2025)
- Might + (21:23:29, 19 October 2025)
- Dithmenos + (21:33:52, 19 October 2025)
- Dungeon feature + (05:49:24, 20 October 2025)
- Kinetic Grapnel + (05:52:00, 20 October 2025)
- Construct Spike Launcher + (05:55:05, 20 October 2025)
- Launch Clockwork Bee + (07:01:31, 20 October 2025)
- Fountain + (12:11:27, 20 October 2025)
- Teleport Other + (12:15:50, 20 October 2025)
- Clockwork bee + (13:16:25, 20 October 2025)
- Spell noise + (13:33:19, 20 October 2025)
- Ensnare + (15:07:10, 20 October 2025)
- Greater Ensnare + (15:07:23, 20 October 2025)
- Claws + (03:46:05, 21 October 2025)